GW3504 Weather Reports


Display with metric or nautical units.
time (UTC)temp
F
wind
direction
speed
MPH
gust
MPH
rain 1hr
in
rain 24hr
in
rain mn
in
humidity
%
barometer
mb
20260503025024 53 0 0.0 0.0 0.00 0.00 0.00 53 1018.8
20260503024537 53 0 0.0 0.0 0.00 0.00 0.00 53 1018.8
20260503024026 53 0 0.0 0.0 0.00 0.00 0.00 53 1018.7
20260503023521 53 0 0.0 0.0 0.00 0.00 0.00 53 1018.8
20260503023036 53 0 0.0 0.0 0.00 0.00 0.00 52 1018.8
20260503022523 53 0 0.0 0.0 0.00 0.00 0.00 51 1018.7
20260503022022 54 0 0.0 0.0 0.00 0.00 0.00 50 1018.7
20260503021536 54 0 0.0 0.0 0.00 0.00 0.00 49 1018.8
20260503021021 54 0 0.0 0.0 0.00 0.00 0.00 48 1018.8
20260503020522 55 0 0.0 0.0 0.00 0.00 0.00 47 1018.8
20260503020037 55 0 0.0 0.0 0.00 0.00 0.00 46 1018.8
20260503015527 55 0 0.0 0.0 0.00 0.00 0.00 44 1018.8
20260503015025 55 0 0.0 0.0 0.00 0.00 0.00 45 1018.7
20260503014556 56 0 0.0 0.0 0.00 0.00 0.00 45 1018.7
20260503014021 56 0 0.0 0.0 0.00 0.00 0.00 44 1018.7
20260503013523 57 0 0.0 0.0 0.00 0.00 0.00 43 1018.7
20260503013038 58 0 0.0 0.0 0.00 0.00 0.00 43 1018.7
20260503012524 58 0 0.0 0.0 0.00 0.00 0.00 42 1018.7
20260503012021 59 0 0.0 0.0 0.00 0.00 0.00 41 1018.6
20260503011535 59 0 0.0 0.0 0.00 0.00 0.00 40 1018.6
20260503011021 60 0 0.0 0.0 0.00 0.00 0.00 38 1018.7
20260503010523 61 0 0.0 0.0 0.00 0.00 0.00 37 1018.7
20260503010037 61 0 0.0 0.0 0.00 0.00 0.00 36 1018.6
20260503005521 62 0 0.0 0.0 0.00 0.00 0.00 35 1018.6
20260503005024 62 0 0.0 1.0 0.00 0.00 0.00 34 1018.7
20260503004537 63 0 0.0 5.0 0.00 0.00 0.00 33 1018.7
20260503004022 63 0 0.0 5.0 0.00 0.00 0.00 33 1018.8
20260503003524 63 165 0.0 4.0 0.00 0.00 0.00 32 1018.8
20260503003034 63 0 0.0 5.0 0.00 0.00 0.00 32 1018.7
20260503002525 64 0 0.0 6.0 0.00 0.00 0.00 31 1018.7
20260503002021 64 0 0.0 6.0 0.00 0.00 0.00 31 1018.7
20260503001552 64 0 0.0 4.0 0.00 0.00 0.00 31 1018.8
20260503001022 64 300 1.0 5.0 0.00 0.00 0.00 30 1018.8
20260503000523 65 290 0.0 5.0 0.00 0.00 0.00 30 1018.8
20260503000038 65 306 1.0 5.0 0.00 0.00 0.00 30 1018.9
20260502235521 65 0 0.0 7.0 0.00 0.00 0.00 31 1018.9
20260502235023 64 0 0.0 7.0 0.00 0.00 0.00 31 1018.9
20260502234541 64 0 1.0 7.0 0.00 0.00 0.00 31 1019.0
20260502234024 64 0 1.0 3.0 0.00 0.00 0.00 31 1019.0
20260502233523 64 0 0.0 6.0 0.00 0.00 0.00 29 1018.9
20260502233034 65 0 0.0 6.0 0.00 0.00 0.00 30 1019.0
20260502232526 65 282 2.0 6.0 0.00 0.00 0.00 30 1019.0
20260502232023 65 0 1.0 5.0 0.00 0.00 0.00 31 1019.1
20260502231536 65 0 0.0 3.0 0.00 0.00 0.00 30 1019.2
20260502231023 65 12 1.0 3.0 0.00 0.00 0.00 31 1019.2
20260502230523 65 40 0.0 4.0 0.00 0.00 0.00 30 1019.3
20260502230041 64 0 0.0 4.0 0.00 0.00 0.00 33 1019.4
20260502225528 64 0 0.0 7.0 0.00 0.00 0.00 32 1019.3
20260502225025 64 0 1.0 7.0 0.00 0.00 0.00 31 1019.3
20260502224537 64 169 3.0 7.0 0.00 0.00 0.00 31 1019.3
20260502224022 65 0 0.0 6.0 0.00 0.00 0.00 34 1019.3
20260502223524 64 0 1.0 6.0 0.00 0.00 0.00 32 1019.3
20260502223042 64 0 2.0 8.0 0.00 0.00 0.00 32 1019.4
20260502222524 65 320 3.0 8.0 0.00 0.00 0.00 32 1019.4
20260502222023 65 286 1.0 5.0 0.00 0.00 0.00 33 1019.3
20260502221540 64 297 0.0 9.0 0.00 0.00 0.00 33 1019.4
20260502221021 64 276 1.0 9.0 0.00 0.00 0.00 32 1019.5
20260502220523 64 269 0.0 5.0 0.00 0.00 0.00 32 1019.5
20260502220035 64 293 1.0 5.0 0.00 0.00 0.00 33 1019.5
20260502215527 64 145 2.0 8.0 0.00 0.00 0.00 30 1019.6
20260502215023 64 0 1.0 8.0 0.00 0.00 0.00 33 1019.7
20260502214539 64 290 2.0 8.0 0.00 0.00 0.00 33 1019.8
20260502214027 63 0 1.0 8.0 0.00 0.00 0.00 31 1019.8
20260502213523 63 327 3.0 8.0 0.00 0.00 0.00 32 1019.9
20260502213036 63 323 1.0 4.0 0.00 0.00 0.00 32 1019.8
20260502212525 63 51 1.0 7.0 0.00 0.00 0.00 32 1019.9
20260502212024 62 0 2.0 7.0 0.00 0.00 0.00 33 1019.9
20260502211536 63 292 2.0 7.0 0.00 0.00 0.00 33 1020.1
20260502211026 63 5 2.0 6.0 0.00 0.00 0.00 32 1020.2
20260502210522 63 355 2.0 10.0 0.00 0.00 0.00 33 1020.2
20260502210038 62 273 2.0 10.0 0.00 0.00 0.00 33 1020.2
20260502205524 62 303 1.0 5.0 0.00 0.00 0.00 30 1020.3
20260502205022 62 13 1.0 9.0 0.00 0.00 0.00 32 1020.3
20260502204539 61 0 3.0 9.0 0.00 0.00 0.00 30 1020.5
20260502204024 62 5 2.0 9.0 0.00 0.00 0.00 33 1020.6
20260502203522 62 302 1.0 10.0 0.00 0.00 0.00 30 1020.6
20260502203034 62 319 2.0 10.0 0.00 0.00 0.00 35 1020.6
20260502202524 62 0 3.0 12.0 0.00 0.00 0.00 31 1020.7
20260502202023 61 0 4.0 12.0 0.00 0.00 0.00 30 1020.7
20260502201545 62 308 2.0 8.0 0.00 0.00 0.00 33 1020.8
20260502201023 63 183 1.0 4.0 0.00 0.00 0.00 32 1020.8
20260502200526 63 117 0.0 4.0 0.00 0.00 0.00 34 1020.9
20260502200035 62 5 1.0 8.0 0.00 0.00 0.00 36 1020.8
20260502195522 62 22 1.0 10.0 0.00 0.00 0.00 34 1020.9
20260502195024 62 16 3.0 11.0 0.00 0.00 0.00 38 1020.9
20260502194535 62 0 3.0 11.0 0.00 0.00 0.00 36 1020.9
20260502194021 61 273 1.0 10.0 0.00 0.00 0.00 37 1021.0
20260502193524 61 300 1.0 5.0 0.00 0.00 0.00 38 1021.0
20260502193037 61 0 1.0 5.0 0.00 0.00 0.00 34 1021.0
20260502192523 62 350 2.0 8.0 0.00 0.00 0.00 38 1021.0
20260502192024 62 321 2.0 8.0 0.00 0.00 0.00 40 1021.2
20260502191546 61 0 1.0 7.0 0.00 0.00 0.00 37 1021.1
20260502191024 60 337 3.0 7.0 0.00 0.00 0.00 37 1021.2
20260502190524 60 342 2.0 7.0 0.00 0.00 0.00 35 1021.3
20260502190039 61 319 2.0 6.0 0.00 0.00 0.00 37 1021.3
20260502185523 62 310 0.0 6.0 0.00 0.00 0.00 36 1021.4
20260502185023 61 151 1.0 10.0 0.00 0.00 0.00 37 1021.4
20260502184545 60 275 2.0 10.0 0.00 0.00 0.00 38 1021.5
20260502184021 61 306 2.0 10.0 0.00 0.00 0.00 38 1021.5
20260502183523 60 0 1.0 10.0 0.00 0.00 0.00 39 1021.5
20260502183052 59 0 3.0 11.0 0.00 0.00 0.00 35 1021.6
20260502182522 60 57 3.0 11.0 0.00 0.00 0.00 34 1021.6
20260502182024 59 0 3.0 11.0 0.00 0.00 0.00 33 1021.7
20260502181542 59 0 1.0 5.0 0.00 0.00 0.00 37 1021.7
20260502181024 59 25 1.0 10.0 0.00 0.00 0.00 33 1021.8
20260502180526 59 340 1.0 10.0 0.00 0.00 0.00 37 1021.9
20260502164024 57 0 2.0 7.0 0.00 0.00 0.00 39 1022.7
20260502163522 57 293 1.0 7.0 0.00 0.00 0.00 40 1022.6
20260502163038 57 24 0.0 8.0 0.00 0.00 0.00 39 1022.6
20260502162524 56 172 2.0 12.0 0.00 0.00 0.00 38 1022.5
20260502162025 56 44 1.0 12.0 0.00 0.00 0.00 40 1022.6
20260502161534 57 355 2.0 8.0 0.00 0.00 0.00 42 1022.6
20260502161022 56 32 1.0 8.0 0.00 0.00 0.00 43 1022.6
20260502160527 56 0 0.0 8.0 0.00 0.00 0.00 42 1022.5
20260502152024 54 0 1.0 9.0 0.00 0.00 0.00 47 1022.5
20260502151538 54 0 2.0 9.0 0.00 0.00 0.00 48 1022.6
20260502151023 54 0 2.0 8.0 0.00 0.00 0.00 50 1022.7
20260502150521 54 16 2.0 8.0 0.00 0.00 0.00 50 1022.7
20260502130523 44 0 0.0 2.0 0.00 0.00 0.00 67 1022.3
20260502123523 42 0 0.0 3.0 0.00 0.00 0.00 69 1021.9
20260502123037 42 0 0.0 3.0 0.00 0.00 0.00 70 1021.9
20260502122524 41 0 0.0 2.0 0.00 0.00 0.00 71 1021.9
20260502122024 41 355 0.0 0.0 0.00 0.00 0.00 71 1021.8
20260502121545 41 0 0.0 0.0 0.00 0.00 0.00 72 1021.7
20260502121024 40 0 0.0 0.0 0.00 0.00 0.00 72 1021.6
20260502120523 40 0 0.0 0.0 0.00 0.00 0.00 72 1021.6
20260502115525 40 0 0.0 0.0 0.00 0.00 0.00 72 1021.3
20260502115024 40 0 0.0 0.0 0.00 0.00 0.00 72 1021.2
20260502114536 40 0 0.0 0.0 0.00 0.00 0.00 72 1021.1
20260502114022 40 0 0.0 0.0 0.00 0.00 0.00 71 1021.1
20260502113523 40 0 0.0 0.0 0.00 0.00 0.00 71 1021.2
20260502113038 40 0 0.0 0.0 0.00 0.00 0.00 71 1021.1
20260502112528 40 0 0.0 0.0 0.00 0.00 0.00 70 1021.0
20260502112025 40 0 0.0 0.0 0.00 0.00 0.00 69 1021.1
20260502111535 40 0 0.0 0.0 0.00 0.00 0.00 69 1021.0
20260502111023 40 0 0.0 3.0 0.00 0.00 0.00 69 1021.0
20260502110526 40 0 0.0 3.0 0.00 0.00 0.00 69 1020.9
20260502110036 40 0 0.0 3.0 0.00 0.00 0.00 70 1021.0
20260502105523 40 0 0.0 0.0 0.00 0.00 0.00 70 1021.0
20260502105023 40 0 0.0 0.0 0.00 0.00 0.00 70 1021.0
20260502104541 40 0 0.0 0.0 0.00 0.00 0.00 70 1021.0
20260502104025 40 0 0.0 0.0 0.00 0.00 0.00 70 1021.0
20260502103524 40 0 0.0 0.0 0.00 0.00 0.00 70 1021.0
20260502103042 40 0 0.0 0.0 0.00 0.00 0.00 69 1021.0
20260502102526 40 0 0.0 0.0 0.00 0.00 0.00 69 1020.9
20260502102026 40 0 0.0 0.0 0.00 0.00 0.00 68 1020.8
20260502101543 41 0 0.0 0.0 0.00 0.00 0.00 68 1020.7
20260502101023 41 0 0.0 0.0 0.00 0.00 0.00 67 1020.8
20260502100525 41 0 0.0 0.0 0.00 0.00 0.00 67 1020.7
20260502091024 44 0 0.0 3.0 0.00 0.00 0.00 59 1020.5
20260502090526 44 0 0.0 3.0 0.00 0.00 0.00 59 1020.5
20260502071025 46 5 1.0 5.0 0.00 0.00 0.00 53 1020.2
20260502070526 47 0 1.0 5.0 0.00 0.00 0.00 53 1020.2
20260502070034 47 0 0.0 5.0 0.00 0.00 0.00 53 1020.3
20260502065525 47 17 0.0 5.0 0.00 0.00 0.00 53 1020.3
20260502065029 47 0 0.0 5.0 0.00 0.00 0.00 52 1020.4
20260502064534 48 13 0.0 5.0 0.00 0.00 0.00 51 1020.5
20260502064025 48 11 1.0 5.0 0.00 0.00 0.00 51 1020.5
20260502063525 48 0 0.0 6.0 0.00 0.00 0.00 50 1020.4
20260502063036 48 355 1.0 6.0 0.00 0.00 0.00 50 1020.3
20260502062525 49 0 2.0 8.0 0.00 0.00 0.00 49 1020.4
20260502062024 49 355 2.0 8.0 0.00 0.00 0.00 49 1020.4
20260502061539 49 29 2.0 8.0 0.00 0.00 0.00 49 1020.4
20260502061023 49 32 3.0 8.0 0.00 0.00 0.00 49 1020.4
20260502060525 49 9 2.0 8.0 0.00 0.00 0.00 49 1020.4
20260502060035 49 24 0.0 8.0 0.00 0.00 0.00 49 1020.5
20260502055525 49 5 2.0 8.0 0.00 0.00 0.00 49 1020.4
20260502055028 49 0 0.0 5.0 0.00 0.00 0.00 49 1020.5
20260502054535 49 25 1.0 6.0 0.00 0.00 0.00 49 1020.4
20260502054023 49 12 2.0 6.0 0.00 0.00 0.00 49 1020.4
20260502053523 50 0 1.0 5.0 0.00 0.00 0.00 49 1020.4
20260502053040 50 0 2.0 6.0 0.00 0.00 0.00 49 1020.4
20260502052523 50 18 1.0 8.0 0.00 0.00 0.00 49 1020.3
20260502052025 50 360 2.0 9.0 0.00 0.00 0.00 49 1020.4
20260502051543 50 34 2.0 9.0 0.00 0.00 0.00 50 1020.3
20260502051024 50 28 2.0 9.0 0.00 0.00 0.00 50 1020.3
20260502050528 50 0 2.0 9.0 0.00 0.00 0.00 50 1020.2
20260502050039 50 37 1.0 10.0 0.00 0.00 0.00 51 1020.1
20260502045524 50 26 2.0 10.0 0.00 0.00 0.00 51 1020.2
20260502045027 50 19 1.0 8.0 0.00 0.00 0.00 51 1020.1
20260502044538 50 17 1.0 8.0 0.00 0.00 0.00 51 1020.1
20260502044026 50 20 2.0 8.0 0.00 0.00 0.00 51 1020.1
20260502043527 51 0 2.0 8.0 0.00 0.00 0.00 51 1020.0
20260502043036 51 28 2.0 8.0 0.00 0.00 0.00 50 1020.0
20260502042523 51 0 1.0 8.0 0.00 0.00 0.00 50 1019.9
20260502042024 51 9 1.0 8.0 0.00 0.00 0.00 50 1019.9
20260502041557 51 355 1.0 7.0 0.00 0.00 0.00 50 1019.9
20260502041023 51 0 1.0 8.0 0.00 0.00 0.00 51 1019.9
20260502040524 51 0 1.0 8.0 0.00 0.00 0.00 52 1019.8
20260502040044 51 0 1.0 8.0 0.00 0.00 0.00 52 1019.8
20260502035524 51 0 1.0 8.0 0.00 0.00 0.00 52 1019.9
20260502035027 52 9 1.0 3.0 0.00 0.00 0.00 52 1019.9
20260502034536 52 0 0.0 5.0 0.00 0.00 0.00 52 1019.8
20260502034025 52 17 0.0 5.0 0.00 0.00 0.00 52 1019.8
20260502033523 52 0 0.0 6.0 0.00 0.00 0.00 52 1019.7
20260502033050 53 0 0.0 7.0 0.00 0.00 0.00 52 1019.7
20260502032527 53 15 2.0 7.0 0.00 0.00 0.00 51 1019.8
20260502032025 53 5 0.0 7.0 0.00 0.00 0.00 52 1019.6
20260502031535 53 346 1.0 5.0 0.00 0.00 0.00 52 1019.6
20260502031024 53 0 1.0 4.0 0.00 0.00 0.00 52 1019.5
20260502030523 53 0 1.0 4.0 0.00 0.00 0.00 52 1019.4
20260502030037 54 0 0.0 4.0 0.00 0.00 0.00 53 1019.4
20260502025532 54 5 0.0 3.0 0.00 0.00 0.00 52 1019.3